Radiation Dose at Monitoring Post of Fukushima Daini Nuclear Power Station
Date,Time,MP-1(microSv/h),MP-2(microSv/h),MP-3(microSv/h),MP-4(microSv/h),MP-5(microSv/h),MP-6(microSv/h),MP-7(microSv/h),Wind Direction,Wind Velocity(m/s),Rain
2020/01/20,00:00,0.181,0.163,0.274,0.254,0.252,0.140,0.086,south-southwest,5.5,No
2020/01/20,00:10,0.182,0.162,0.275,0.254,0.253,0.139,0.085,southwest,4.4,No
2020/01/20,00:20,0.181,0.162,0.275,0.255,0.252,0.140,0.086,south-southwest,8.1,No
2020/01/20,00:30,0.181,0.163,0.273,0.256,0.251,0.140,0.086,south-southwest,5.5,No
2020/01/20,00:40,0.182,0.163,0.275,0.254,0.253,0.140,0.087,south-southwest,3.6,No
2020/01/20,00:50,0.181,0.162,0.275,0.255,0.253,0.139,0.086,south,4.6,No
2020/01/20,01:00,0.181,0.161,0.275,0.254,0.253,0.140,0.086,south,3.5,No
2020/01/20,01:10,0.181,0.161,0.274,0.256,0.253,0.139,0.086,south-southwest,3.4,No
2020/01/20,01:20,0.182,0.162,0.275,0.254,0.252,0.139,0.086,southwest,4.1,No
2020/01/20,01:30,0.181,0.163,0.275,0.255,0.252,0.140,0.085,southwest,3.3,No
2020/01/20,01:40,0.181,0.162,0.275,0.255,0.253,0.138,0.085,southwest,3.2,No
2020/01/20,01:50,0.180,0.162,0.274,0.255,0.251,0.140,0.086,southwest,3.6,No
2020/01/20,02:00,0.182,0.162,0.275,0.255,0.251,0.139,0.086,southwest,4.1,No
2020/01/20,02:10,0.181,0.161,0.274,0.256,0.252,0.139,0.085,south-southwest,2.7,No
2020/01/20,02:20,0.181,0.161,0.275,0.254,0.252,0.140,0.086,south-southwest,3.1,No
2020/01/20,02:30,0.181,0.162,0.273,0.255,0.253,0.139,0.085,southwest,3.6,No
2020/01/20,02:40,0.181,0.162,0.276,0.256,0.253,0.139,0.086,southwest,6.0,No
2020/01/20,02:50,0.181,0.162,0.275,0.254,0.251,0.139,0.086,southwest,5.7,No
2020/01/20,03:00,0.181,0.162,0.275,0.254,0.251,0.139,0.086,southwest,6.6,No
2020/01/20,03:10,0.180,0.162,0.275,0.254,0.252,0.140,0.085,southwest,6.1,No
2020/01/20,03:20,0.181,0.162,0.275,0.255,0.251,0.140,0.086,southwest,5.6,No
2020/01/20,03:30,0.182,0.163,0.275,0.255,0.253,0.139,0.086,southwest,5.6,No
2020/01/20,03:40,0.182,0.162,0.275,0.255,0.253,0.139,0.086,southwest,5.6,No
2020/01/20,03:50,0.181,0.161,0.274,0.255,0.252,0.139,0.086,southwest,4.5,No
2020/01/20,04:00,0.181,0.161,0.273,0.256,0.253,0.140,0.085,south-southwest,3.9,No
2020/01/20,04:10,0.182,0.161,0.275,0.253,0.253,0.140,0.086,southwest,6.2,No
2020/01/20,04:20,0.181,0.162,0.275,0.254,0.251,0.140,0.086,south-southwest,5.9,No
2020/01/20,04:30,0.180,0.162,0.275,0.255,0.252,0.139,0.086,southwest,5.8,No
2020/01/20,04:40,0.182,0.162,0.274,0.256,0.252,0.139,0.086,southwest,5.1,No
2020/01/20,04:50,0.181,0.162,0.275,0.256,0.252,0.140,0.086,southwest,3.8,No
2020/01/20,05:00,0.182,0.163,0.274,0.255,0.254,0.139,0.086,southwest,1.8,No
2020/01/20,05:10,0.181,0.162,0.275,0.254,0.253,0.140,0.086,-,CALM,No
2020/01/20,05:20,0.182,0.162,0.274,0.255,0.251,0.140,0.086,-,CALM,No
2020/01/20,05:30,0.181,0.162,0.274,0.256,0.253,0.139,0.086,-,CALM,No
2020/01/20,05:40,0.181,0.164,0.274,0.255,0.253,0.139,0.085,southwest,0.8,No
2020/01/20,05:50,0.182,0.162,0.274,0.255,0.252,0.140,0.085,west,0.9,No
2020/01/20,06:00,0.181,0.162,0.274,0.256,0.254,0.138,0.085,south-southwest,1.4,No
2020/01/20,06:10,0.180,0.163,0.277,0.255,0.253,0.139,0.086,south,2.2,No
2020/01/20,06:20,0.182,0.162,0.274,0.256,0.252,0.139,0.086,south-southwest,3.3,No
2020/01/20,06:30,0.180,0.163,0.275,0.256,0.252,0.140,0.086,south-southwest,3.2,No
2020/01/20,06:40,0.181,0.163,0.275,0.254,0.251,0.140,0.085,south,3.6,No
2020/01/20,06:50,0.181,0.162,0.274,0.255,0.252,0.139,0.085,south,3.4,No
2020/01/20,07:00,0.182,0.163,0.274,0.255,0.253,0.139,0.085,south,2.9,No
2020/01/20,07:10,0.181,0.162,0.275,0.255,0.252,0.140,0.086,southwest,1.5,No
2020/01/20,07:20,0.181,0.163,0.275,0.255,0.251,0.140,0.086,southwest,1.4,No
2020/01/20,07:30,0.181,0.162,0.275,0.254,0.252,0.140,0.085,west-southwest,1.1,No
2020/01/20,07:40,0.182,0.161,0.275,0.256,0.253,0.139,0.085,west,2.8,No
2020/01/20,07:50,0.182,0.162,0.276,0.255,0.252,0.140,0.086,west,3.2,No
2020/01/20,08:00,0.182,0.162,0.275,0.255,0.252,0.140,0.086,west,3.3,No
2020/01/20,08:10,0.182,0.163,0.274,0.255,0.253,0.139,0.086,west,3.6,No
2020/01/20,08:20,0.181,0.162,0.274,0.255,0.252,0.140,0.085,west,4.0,No
2020/01/20,08:30,0.181,0.161,0.274,0.255,0.252,0.140,0.085,west,5.5,No
2020/01/20,08:40,0.182,0.161,0.276,0.253,0.252,0.140,0.086,west-southwest,4.3,No
2020/01/20,08:50,0.182,0.162,0.275,0.254,0.253,0.139,0.086,southwest,3.4,No
2020/01/20,09:00,0.180,0.162,0.274,0.253,0.253,0.139,0.086,west-southwest,4.6,No
2020/01/20,09:10,0.182,0.162,0.275,0.254,0.252,0.140,0.085,west-southwest,5.0,No
2020/01/20,09:20,0.182,0.162,0.276,0.255,0.252,0.139,0.085,west-southwest,4.6,No
2020/01/20,09:30,0.181,0.162,0.274,0.255,0.253,0.139,0.085,west-southwest,7.8,No
2020/01/20,09:40,0.182,0.161,0.275,0.255,0.253,0.140,0.086,west,8.1,No
2020/01/20,09:50,0.182,0.162,0.274,0.256,0.252,0.139,0.085,west-southwest,8.4,No
2020/01/20,10:00,0.181,0.161,0.276,0.254,0.251,0.139,0.085,west-northwest,6.2,No
2020/01/20,10:10,0.181,0.162,0.275,0.254,0.254,0.140,0.086,west-southwest,6.3,No
2020/01/20,10:20,0.181,0.162,0.275,0.254,0.253,0.140,0.086,west,5.9,No
2020/01/20,10:30,0.180,0.162,0.275,0.253,0.253,0.140,0.086,west,5.3,No
2020/01/20,10:40,0.180,0.161,0.276,0.255,0.253,0.139,0.087,west-southwest,7.0,No
2020/01/20,10:50,0.181,0.163,0.276,0.255,0.251,0.141,0.085,west-southwest,5.3,No
2020/01/20,11:00,0.181,0.162,0.275,0.256,0.252,0.140,0.085,west,6.5,No
2020/01/20,11:10,0.182,0.161,0.275,0.255,0.252,0.140,0.086,west,6.2,No
2020/01/20,11:20,0.181,0.162,0.274,0.254,0.252,0.140,0.086,west,7.0,No
2020/01/20,11:30,0.182,0.162,0.275,0.256,0.253,0.139,0.085,west,6.7,No
2020/01/20,11:40,0.181,0.163,0.275,0.255,0.251,0.140,0.086,west-southwest,6.5,No
2020/01/20,11:50,0.181,0.162,0.274,0.255,0.254,0.140,0.086,west,6.2,No
2020/01/20,12:00,0.182,0.161,0.274,0.255,0.251,0.140,0.086,west-southwest,7.9,No
2020/01/20,12:10,0.181,0.162,0.274,0.253,0.253,0.140,0.086,west-southwest,6.4,No
2020/01/20,12:20,0.180,0.161,0.274,0.256,0.251,0.139,0.086,west-southwest,8.6,No
2020/01/20,12:30,0.180,0.162,0.275,0.253,0.253,0.141,0.084,west,7.4,No
2020/01/20,12:40,0.180,0.163,0.274,0.255,0.251,0.139,0.086,west,6.2,No
2020/01/20,12:50,0.180,0.162,0.275,0.254,0.253,0.141,0.085,west,8.6,No
2020/01/20,13:00,0.181,0.162,0.275,0.254,0.252,0.139,0.087,west,10.6,No
2020/01/20,13:10,0.180,0.162,0.275,0.256,0.254,0.140,0.085,west,8.6,No
2020/01/20,13:20,0.181,0.162,0.274,0.255,0.253,0.140,0.086,west,7.0,No
2020/01/20,13:30,0.182,0.163,0.276,0.256,0.253,0.141,0.085,west,8.4,No
2020/01/20,13:40,0.180,0.162,0.276,0.254,0.255,0.140,0.086,west,5.8,No
2020/01/20,13:50,0.182,0.162,0.275,0.255,0.254,0.140,0.086,west,6.2,No
2020/01/20,14:00,0.181,0.162,0.274,0.253,0.254,0.140,0.085,west,6.7,No
2020/01/20,14:10,0.181,0.162,0.275,0.257,0.251,0.139,0.085,west,5.3,No
2020/01/20,14:20,0.181,0.162,0.275,0.253,0.254,0.140,0.085,west-northwest,9.5,No
2020/01/20,14:30,0.181,0.161,0.276,0.256,0.252,0.139,0.086,west,8.8,No
2020/01/20,14:40,0.182,0.163,0.276,0.255,0.253,0.140,0.086,west-northwest,5.7,No
2020/01/20,14:50,0.181,0.162,0.275,0.256,0.253,0.140,0.085,west-northwest,4.8,No
2020/01/20,15:00,0.183,0.161,0.277,0.256,0.252,0.140,0.086,west,2.8,No
2020/01/20,15:10,0.182,0.162,0.276,0.256,0.254,0.139,0.086,west-northwest,4.1,No
2020/01/20,15:20,0.182,0.163,0.276,0.257,0.253,0.139,0.086,west-northwest,5.1,No
2020/01/20,15:30,0.181,0.162,0.276,0.256,0.254,0.139,0.086,west-northwest,6.4,No
2020/01/20,15:40,0.184,0.162,0.276,0.255,0.252,0.140,0.085,west-northwest,4.7,No
2020/01/20,15:50,0.183,0.162,0.276,0.256,0.252,0.140,0.086,west-northwest,3.9,No
2020/01/20,16:00,0.181,0.162,0.275,0.255,0.255,0.141,0.086,west-northwest,4.0,No
2020/01/20,16:10,0.182,0.162,0.277,0.256,0.253,0.140,0.086,west-northwest,4.7,No
2020/01/20,16:20,0.181,0.164,0.276,0.256,0.254,0.141,0.086,northwest,4.3,No
2020/01/20,16:30,0.182,0.162,0.276,0.255,0.254,0.139,0.086,northwest,3.9,No
2020/01/20,16:40,0.182,0.162,0.277,0.256,0.253,0.140,0.086,west-northwest,4.0,No
2020/01/20,16:50,0.182,0.163,0.275,0.256,0.252,0.140,0.086,west-northwest,5.9,No
2020/01/20,17:00,0.183,0.162,0.276,0.256,0.254,0.141,0.087,northwest,5.6,No
2020/01/20,17:10,0.181,0.163,0.275,0.255,0.253,0.141,0.086,northwest,3.6,No
2020/01/20,17:20,0.182,0.162,0.275,0.256,0.253,0.140,0.086,north-northwest,3.4,No
2020/01/20,17:30,0.181,0.162,0.276,0.255,0.252,0.140,0.086,north-northwest,3.0,No
2020/01/20,17:40,0.182,0.162,0.276,0.256,0.254,0.140,0.085,north-northwest,3.5,No
2020/01/20,17:50,0.182,0.163,0.276,0.255,0.252,0.140,0.086,north-northwest,4.5,No
2020/01/20,18:00,0.182,0.162,0.275,0.256,0.252,0.140,0.087,north-northwest,4.3,No
2020/01/20,18:10,0.183,0.163,0.276,0.256,0.253,0.140,0.086,north,5.2,No
2020/01/20,18:20,0.182,0.162,0.275,0.255,0.253,0.140,0.086,north-northwest,6.1,No
2020/01/20,18:30,0.182,0.162,0.276,0.256,0.253,0.140,0.086,north-northwest,5.1,No
2020/01/20,18:40,0.183,0.163,0.276,0.256,0.253,0.140,0.086,north-northwest,5.9,No
2020/01/20,18:50,0.182,0.163,0.275,0.255,0.254,0.139,0.086,north-northwest,6.0,No
2020/01/20,19:00,0.182,0.161,0.276,0.256,0.253,0.140,0.086,north-northwest,6.1,No
2020/01/20,19:10,0.183,0.161,0.277,0.256,0.252,0.140,0.086,north,5.5,No
2020/01/20,19:20,0.181,0.163,0.276,0.257,0.253,0.140,0.086,north,5.7,No
2020/01/20,19:30,0.181,0.163,0.276,0.256,0.253,0.140,0.086,north,4.9,No
2020/01/20,19:40,0.182,0.162,0.277,0.256,0.253,0.139,0.086,north,4.9,No
2020/01/20,19:50,0.182,0.162,0.276,0.256,0.253,0.140,0.087,north,5.2,No
2020/01/20,20:00,0.182,0.162,0.275,0.256,0.253,0.140,0.086,north,4.4,No
2020/01/20,20:10,0.182,0.163,0.275,0.255,0.254,0.140,0.086,north,3.7,No
2020/01/20,20:20,0.181,0.162,0.275,0.256,0.253,0.140,0.087,north,3.8,No
2020/01/20,20:30,0.182,0.162,0.276,0.257,0.254,0.139,0.086,north,3.3,No
2020/01/20,20:40,0.182,0.164,0.276,0.257,0.254,0.140,0.086,north,2.6,No
2020/01/20,20:50,0.181,0.162,0.275,0.255,0.253,0.139,0.086,north,3.1,No
2020/01/20,21:00,0.182,0.162,0.277,0.255,0.253,0.140,0.086,north,1.9,No
2020/01/20,21:10,0.182,0.163,0.276,0.257,0.253,0.140,0.087,-,CALM,No
2020/01/20,21:20,0.181,0.162,0.276,0.256,0.253,0.140,0.086,east,1.2,No
2020/01/20,21:30,0.182,0.163,0.276,0.256,0.254,0.140,0.086,east,2.2,No
2020/01/20,21:40,0.183,0.162,0.277,0.257,0.253,0.141,0.086,east-southeast,1.9,No
2020/01/20,21:50,0.182,0.163,0.275,0.257,0.254,0.139,0.085,east-southeast,2.2,No
2020/01/20,22:00,0.182,0.162,0.275,0.255,0.252,0.140,0.086,east-southeast,1.9,No
2020/01/20,22:10,0.182,0.162,0.276,0.256,0.252,0.140,0.086,southeast,1.9,No
2020/01/20,22:20,0.182,0.163,0.276,0.257,0.254,0.139,0.086,east-southeast,2.0,Yes
2020/01/20,22:30,0.182,0.163,0.277,0.256,0.254,0.141,0.088,east-southeast,2.9,Yes
2020/01/20,22:40,0.182,0.163,0.277,0.257,0.254,0.141,0.088,east-southeast,2.2,No
2020/01/20,22:50,0.182,0.163,0.276,0.257,0.255,0.141,0.087,east-southeast,2.7,No
2020/01/20,23:00,0.183,0.164,0.276,0.257,0.254,0.141,0.087,southeast,3.2,No
2020/01/20,23:10,0.182,0.163,0.277,0.257,0.253,0.141,0.088,south-southeast,2.8,No
2020/01/20,23:20,0.183,0.163,0.276,0.256,0.254,0.141,0.087,south-southeast,3.4,No
2020/01/20,23:30,0.184,0.162,0.276,0.257,0.253,0.141,0.087,south-southwest,2.0,Yes
2020/01/20,23:40,0.182,0.163,0.276,0.256,0.254,0.140,0.087,southwest,3.4,No
2020/01/20,23:50,0.182,0.162,0.276,0.256,0.252,0.141,0.087,southwest,3.4,No
